Regional Weather Roundup
Issued by NWS Charleston, WV

Home | Current Version | Previous Version | Graphics & Text | Print | Product List | Glossary On
Versions: 1 2 3 4 5 6 7 8 9 10 11 12 13 14 15 16 17 18 19 20 21 22 23 24 25 26 27 28 29 30 31 32 33 34 35 36 37 38 39 40 41 42 43 44 45 46 47 48 49 50
000
ASUS41 KRLX 051310
RWRRLX
West Virginia Regional Weather Roundup
National Weather Service Charleston WV
800 AM EST THU MAR 05 2015

Note: "fair" indicates few or no clouds below 12,000 feet with no
significant weather and/or obstructions to visibility.

WVZ003-051400-
Northern Panhandle of West Virginia

CITY           SKY/WX    TMP DP  RH WIND       PRES   REMARKS
WHEELING       LGT SNOW  15  11  83 N7        30.21R FOG     WCI   5
$$

WVZ009-051400-
Northwest West Virginia

CITY           SKY/WX    TMP DP  RH WIND       PRES   REMARKS
PARKERSBURG    LGT SNOW  19  16  88 VRB6      30.25R VSB 1
$$

WVZ006-051400-
Western West Virginia

CITY           SKY/WX    TMP DP  RH WIND       PRES   REMARKS
HUNTINGTON     LGT SNOW  20  18  92 NW10      30.24R VSB 1   WCI   9
$$

WVZ015-051400-
West Central West Virginia

CITY           SKY/WX    TMP DP  RH WIND       PRES   REMARKS
CHARLESTON     LGT SNOW  24  21  88 N9        30.15S VSB 1
$$

WVZ022-031-051400-
North Central West Virginia

CITY           SKY/WX    TMP DP  RH WIND       PRES   REMARKS
CLARKSBURG     NOT AVBL
MORGANTOWN     LGT SNOW  20  15  81 NW8       30.17R VSB 1
$$

WVZ025-035-042-045-051400-
Southern West Virginia

CITY           SKY/WX    TMP DP  RH WIND       PRES   REMARKS
BECKLEY        MIX PCPN  25  22  88 N16       29.99F FOG
LOGAN          LGT SNOW  25  23  93 VRB6      30.07R
BLUEFIELD      FRZ RAIN  32  28  85 N7        29.96R FOG
LEWISBURG      LGT SNOW  32  32  99 NE3       29.97S
$$

WVZ047-051400-
Northern Mountains of West Virginia

CITY           SKY/WX    TMP DP  RH WIND       PRES   REMARKS
ELKINS         SNOW      23  21  92 NW8       30.08R VSB 1/2
$$

WVZ052-051400-
Eastern Panhandle of West Virginia

CITY           SKY/WX    TMP DP  RH WIND       PRES   REMARKS
MARTINSBURG    SNOW      29  24  82 N15       30.14R VSB 1/2
PETERSBURG     LGT SNOW N/A N/A N/A CALM      30.13  VSB 1
$$


USA.gov is the U.S. government's official web portal to all federal, state and local government web resources and services.